sat.trackr.live / text

‹ back to catalog

SITRO-AIS 38

NORAD 61786 · 2024-199BD

PAYLOAD ACTIVE UNKNOWN

§ Identity

Operator
Country
CIS
Launch date
2024-11-04
Launch site
VOSTO
Launch vehicle
Mass (kg)
RCS (m²)

External: N2YO · Heavens-Above · Gunter

§ Orbital elements

Epoch: 2026-05-25T02:49:40.332288Z

Period
93.06 min
Inclination
97.2983°
Eccentricity
0.0009949
Mean motion
15.47464075 rev/d
Perigee alt
417.4 km
Apogee alt
430.9 km
Semi-major
6,802.3 km
B*
5.3824e-4
RAAN
19.1228°
Arg perigee
28.5381°
Mean anomaly
331.6412°
Rev number
13,074

§ Raw data

SITRO-AIS 381 61786U 24199BD  26145.11782792  .00027629  00000+0  53824-3 0  99982 61786  97.2983  19.1228 0009949  28.5381 331.6412 15.47464075130747

JSON: /api/v1/satellites/61786 · /tle

For live sub-satellite position, see the globe view (requires WebGL).

§ Visibility from observer

Set your observer location to see the next 7 days of passes ≥ 10°. The values pass through the URL so the page stays shareable.

No JS? Fill the form by hand. The geolocation button needs JavaScript.

§ Radio — SatNOGS DB

ModeDescriptionDownlinkUplink
GMSK USP Mode U - GMSK2k4 - USP 401.045 MHz

1 transmitter · refreshed weekly from db.satnogs.org